Theta_e
292 291 290 289 289 288 287 289 288 291 290 292 292 292 293 294 292 290 290 290 290 290 291 290 289 287 286 286 285 285 284 284 284 285 284 282 281 279 278 277 277 276 276 275
287 291 288 286 289 288 289 290 291 291 289 296 295 293 291 290 289 289 290 290 290 290 290 290 289 288 287 286 285 285 284 284 285 284 282 280 278 277 276 275 274 274 273 273
284 289 284 281 286 288 289 291 290 287 291 290 289 290 292 292 290 290 291 291 290 290 290 290 289 288 287 286 286 284 283 283 282 282 279 278 277 275 274 274 273 273 272 272
283 281 276 285 283 291 288 289 289 288 288 290 290 290 290 291 291 290 290 290 290 290 290 289 288 287 287 286 284 282 283 282 281 279 278 276 274 274 273 273 272 272 272 271
278 278 283 278 280 285 285 287 288 289 287 285 282 285 286 286 287 290 289 289 289 291 290 288 286 286 283 282 282 282 281 281 279 278 276 274 273 273 273 272 271 271 271 270
278 279 278 283 280 283 286 282 284 289 286 282 282 284 289 284 285 286 286 286 286 286 286 286 285 283 281 281 280 280 281 280 279 277 275 273 273 272 272 271 270 270 270 269
278 279 281 286 280 281 279 284 283 287 285 281 283 287 285 284 283 285 285 284 283 283 283 283 282 280 280 280 279 281 280 278 276 275 273 273 271 271 270 269 268 267 267 268
279 278 277 280 279 281 285 281 283 282 282 282 282 281 282 282 282 281 282 281 283 282 281 282 281 280 280 279 281 278 277 275 273 271 272 270 268 268 267 267 266 266 266 267
282 282 280 282 282 283 283 284 281 283 282 283 281 280 281 280 281 281 281 281 281 281 280 280 279 279 279 281 277 274 273 272 270 269 269 268 267 267 267 267 267 268 267 268
280 279 279 281 281 282 282 282 283 284 283 283 282 281 280 281 281 281 280 280 279 278 278 278 278 277 279 276 274 271 271 269 268 267 267 266 268 268 268 268 268 268 267 267
276 276 278 280 281 283 282 282 281 281 281 281 281 280 281 280 280 280 280 279 277 278 278 279 278 277 276 273 271 271 270 269 269 268 266 268 267 269 268 269 268 267 267 267
277 279 280 281 283 282 281 281 281 281 279 280 281 281 280 279 280 279 279 278 276 276 276 278 276 275 271 270 270 270 269 269 269 269 268 268 268 268 269 270 271 272 273 273
280 282 281 282 283 283 282 281 281 281 281 280 279 280 279 279 278 278 277 276 276 276 275 274 272 271 268 267 268 268 271 269 268 267 268 267 266 266 266 267 268 269 270 271
281 280 278 280 280 281 281 281 280 278 279 279 279 277 277 276 274 275 274 273 272 271 268 268 267 266 266 266 266 266 267 265 268 268 267 267 266 265 264 263 263 264 265 265
279 281 281 281 280 279 278 277 276 276 276 275 275 276 274 274 273 272 268 266 266 265 264 265 264 262 262 262 262 263 264 265 265 265 264 264 263 263 262 262 262 261 262 263
279 278 276 277 278 276 276 274 276 277 276 275 274 272 273 272 268 263 262 263 267 267 261 261 262 260 259 259 260 261 261 260 261 263 262 262 262 261 261 261 260 260 260 261
274 274 271 274 275 276 275 278 278 279 276 274 274 270 266 262 260 258 256 256 259 259 259 260 258 255 256 257 259 262 262 261 259 260 260 260 260 260 260 260 259 260 260 261
280 281 279 280 279 278 275 275 275 274 272 272 267 265 262 261 264 258 255 254 255 255 256 255 254 253 253 255 256 259 259 259 259 258 259 259 259 259 259 258 258 258 259 260
270 274 274 274 273 272 271 270 268 267 265 264 263 262 261 260 259 255 253 255 257 258 256 253 259 254 256 254 255 257 258 258 258 257 257 256 256 257 257 257 258 258 258 258
263 265 266 264 262 263 263 261 261 259 259 259 257 257 255 253 253 252 254 258 257 257 253 254 253 256 255 254 258 258 258 258 257 257 257 257 257 257 257 256 256 257 257 257
257 259 260 259 257 256 256 258 258 257 256 257 258 255 253 250 251 252 255 259 255 252 253 253 255 258 257 257 256 258 257 257 257 257 256 256 256 256 256 256 257 257 257 257
254 255 256 255 254 252 252 254 255 254 255 254 252 251 251 251 250 252 252 257 256 254 256 257 258 256 257 255 258 258 257 257 257 257 257 257 257 257 257 257 257 258 258 258
252 254 254 253 252 251 252 252 253 254 253 253 253 254 257 257 257 258 257 255 256 256 257 258 257 258 259 260 260 259 258 257 257 257 257 257 257 257 257 257 258 258 257 257
251 251 250 251 251 253 252 251 252 252 252 253 254 255 257 256 256 256 256 255 254 255 257 257 258 261 258 258 258 258 257 257 257 257 257 256 257 257 257 257 257 257 256 255
250 250 251 252 253 252 251 252 252 253 253 254 254 255 256 256 258 256 255 255 254 256 257 256 259 260 257 257 257 257 257 257 257 257 257 256 256 256 256 256 255 255 255 254
252 252 252 252 254 255 255 256 255 256 256 255 254 255 254 254 255 255 255 254 255 255 256 257 256 256 257 257 256 256 256 257 256 256 256 256 256 255 255 255 255 255 254 254
254 254 255 254 254 255 255 255 256 255 254 255 255 254 254 254 254 254 254 255 256 256 256 256 256 256 256 256 256 256 256 256 256 256 256 256 255 255 255 255 254 254 254 253
Wind_Speed
21 9 7 8 18 22 26 31 17 18 20 14 15 15 14 13 12 15 17 18 18 17 16 16 16 15 14 14 14 14 14 14 14 11 10 9 7 6 5 4 3 2 2 2
20 20 14 13 17 25 27 27 26 15 15 8 14 5 8 11 13 16 17 17 17 16 15 16 16 16 15 15 15 14 14 14 13 10 9 9 8 7 5 4 3 3 3 4
17 14 4 8 27 21 17 21 19 21 14 7 7 12 13 13 15 16 15 16 15 14 14 13 14 13 15 15 13 12 12 10 9 10 10 9 8 7 6 5 4 4 5 5
5 6 12 6 3 16 17 12 12 2 5 7 5 5 4 5 11 11 10 11 11 9 10 10 9 11 11 11 11 11 11 9 9 10 10 9 8 7 6 5 6 6 7 5
5 7 6 1 5 10 14 14 11 13 5 5 5 3 3 5 6 9 10 8 7 8 8 8 10 9 8 8 8 9 11 11 11 11 10 10 9 8 6 5 6 7 6 4
5 6 10 1 2 2 4 6 8 12 9 9 8 6 7 10 7 7 7 6 7 7 5 7 7 8 8 8 8 10 11 11 11 11 10 9 9 8 5 5 6 6 5 5
7 6 5 5 6 3 7 4 4 7 9 12 8 3 4 9 6 4 4 5 4 6 8 7 7 7 8 7 10 10 7 8 9 10 9 9 8 6 6 6 6 6 6 5
4 5 10 7 5 8 3 3 5 6 9 11 6 7 8 8 6 6 5 4 6 5 7 7 7 8 7 9 7 6 8 8 9 9 8 7 7 7 6 6 6 6 6 6
7 3 2 10 3 2 3 5 5 7 6 9 8 8 9 7 7 5 5 5 4 7 6 5 7 8 8 8 7 7 7 8 8 8 7 7 7 7 5 6 5 6 6 5
4 5 3 10 2 3 4 5 6 4 7 9 9 9 8 6 6 5 4 5 4 5 6 8 7 7 9 4 6 7 8 8 7 8 8 7 6 6 6 6 6 6 6 6
1 1 2 4 6 8 6 3 5 4 5 8 7 7 7 6 5 5 5 4 5 7 8 11 6 8 6 6 8 8 7 7 8 7 8 7 8 7 7 7 7 6 6 6
4 8 4 10 16 11 10 10 8 8 4 3 7 8 7 6 7 6 6 3 4 6 6 7 3 4 4 6 8 8 8 7 7 6 6 6 6 6 12 14 14 16 17 13
4 8 5 0 5 11 12 6 9 8 7 8 7 7 6 5 5 5 3 4 6 6 4 2 3 4 4 6 7 7 8 8 6 6 6 6 5 6 6 6 10 12 14 14
4 8 0 3 5 8 8 6 4 2 4 6 7 4 5 5 3 5 6 4 2 3 3 3 4 4 5 6 6 4 4 2 4 4 5 5 5 6 5 6 6 5 5 7
7 6 4 3 5 3 3 5 5 7 7 6 4 6 6 7 6 5 4 4 5 5 4 4 5 5 3 4 5 5 4 3 3 4 4 4 5 5 6 6 6 6 6 6
8 1 4 0 1 3 4 3 6 8 6 5 7 7 6 4 6 6 5 4 5 5 4 5 6 3 3 2 3 2 3 3 3 3 4 5 5 6 6 6 7 6 6 7
5 1 1 5 7 8 12 11 12 10 7 6 7 6 7 7 7 6 4 3 5 6 4 3 5 3 3 2 3 2 2 3 3 4 5 5 5 6 6 7 7 7 7 7
6 4 7 6 6 7 7 9 8 6 5 3 6 8 8 8 7 8 6 5 5 6 4 3 2 2 1 2 3 2 2 3 3 4 4 5 6 6 7 7 8 8 7 7
5 7 4 4 1 2 0 0 1 3 4 6 8 7 6 6 8 8 6 6 5 6 3 1 3 2 0 2 3 2 3 3 3 3 4 5 5 6 7 7 8 8 7 6
8 5 5 4 5 3 4 4 6 7 5 7 10 9 9 6 7 7 4 5 4 4 3 1 2 0 1 1 2 2 2 3 4 4 4 5 5 6 7 7 8 7 7 6
8 7 6 6 7 7 7 4 6 8 6 6 8 8 9 7 5 5 7 5 3 2 2 3 3 2 2 2 3 2 2 3 3 4 4 5 6 6 7 7 7 7 7 6
6 5 6 7 7 7 7 6 8 7 8 9 9 9 9 7 5 3 2 2 4 3 2 1 1 2 3 3 2 3 4 4 4 4 5 5 6 7 7 7 7 7 7 6
6 5 5 5 7 7 6 7 7 7 8 7 7 7 6 5 4 4 4 4 2 1 1 1 2 4 5 3 3 4 4 5 5 5 5 6 7 7 7 7 7 7 7 7
4 5 4 4 3 6 9 4 6 7 6 6 6 4 5 5 3 3 3 3 1 1 1 2 3 6 1 1 3 4 4 5 5 6 6 6 7 7 7 7 7 7 7 8
5 4 3 4 6 5 5 4 6 5 6 6 5 4 4 3 2 3 1 0 2 1 2 3 5 5 3 4 4 5 5 5 5 6 6 7 7 7 7 7 7 7 7 7
5 5 5 5 4 4 3 2 4 3 3 4 3 2 2 1 1 1 1 1 1 2 3 3 2 3 4 5 5 6 6 6 6 6 6 7 7 7 7 8 8 7 7 7
5 5 4 4 5 4 3 3 2 3 2 1 3 1 2 1 1 2 2 2 2 3 3 3 3 4 4 5 5 6 6 6 7 6 6 7 7 7 7 8 7 7 7 7
Wind_Direction
238 231 205 207 193 197 209 223 216 240 227 200 194 201 197 204 186 190 197 196 197 199 199 202 202 204 202 200 193 190 192 193 198 194 190 184 180 182 185 186 164 170 202 279
242 241 234 235 217 204 211 223 236 247 239 177 195 157 184 192 184 201 203 198 200 198 198 204 205 205 202 202 198 192 197 203 200 190 178 185 183 186 189 190 189 205 235 248
236 215 188 259 226 205 209 217 221 223 236 140 172 196 204 196 196 204 203 200 196 193 199 205 206 204 205 203 193 189 192 194 180 176 182 188 188 191 199 205 212 228 236 238
228 129 219 280 8 217 211 195 211 233 152 155 160 171 172 166 193 193 189 187 191 190 197 202 196 200 204 195 184 183 195 188 184 180 187 185 189 200 202 207 225 234 237 234
188 208 329 107 200 170 178 231 196 218 153 135 97 89 185 176 190 196 187 189 188 185 184 179 189 187 171 163 171 185 198 199 189 185 185 185 195 199 205 215 226 239 236 237
154 208 224 277 172 175 129 251 198 180 136 152 145 193 226 174 166 170 167 171 180 170 168 178 172 158 156 174 179 203 202 200 186 182 181 183 194 195 202 217 234 240 247 250
198 222 273 199 168 164 147 238 124 166 150 154 186 212 114 145 159 161 173 178 155 168 183 189 154 150 181 169 205 211 180 167 174 180 174 182 183 190 196 214 236 243 258 259
174 217 249 142 97 179 155 31 136 150 166 173 145 148 143 152 152 172 191 183 188 180 205 185 161 168 187 200 213 157 166 170 173 166 171 175 181 187 204 215 232 244 256 264
202 203 52 170 52 130 69 139 177 159 159 153 150 169 161 168 170 181 193 205 191 207 212 184 179 188 190 222 157 156 164 171 165 163 174 173 187 202 215 218 239 250 250 262
163 173 197 182 52 120 178 168 156 159 151 164 167 162 164 157 163 179 190 212 186 187 215 219 205 197 225 134 149 159 176 172 164 173 183 188 201 209 218 226 233 239 246 257
39 109 127 200 230 197 187 140 135 130 158 178 147 169 171 178 188 204 216 194 190 205 220 229 178 206 195 172 161 177 173 173 183 191 195 199 217 218 223 231 231 237 238 243
192 183 150 195 208 192 187 192 176 161 169 188 174 187 171 199 203 203 214 189 209 223 226 236 182 207 174 167 171 165 179 183 191 195 198 210 221 234 237 242 241 246 258 261
165 179 186 4 188 182 203 176 189 194 190 179 203 195 187 192 193 198 194 205 213 216 218 231 202 187 164 170 164 168 184 182 191 208 212 218 225 239 254 224 254 261 266 272
136 116 265 199 198 184 186 180 177 164 187 193 188 172 184 183 136 187 196 189 176 158 142 147 143 144 151 155 166 166 181 138 201 211 224 227 233 240 241 248 256 254 248 276
184 219 166 155 125 120 111 134 168 191 188 201 200 188 176 193 199 178 130 122 114 112 119 123 117 112 117 137 150 162 175 197 214 233 238 245 246 247 251 255 255 262 282 270
184 169 45 163 111 170 171 191 209 226 199 190 192 195 189 142 119 118 116 137 150 158 136 107 107 98 128 135 128 155 211 239 234 243 244 242 246 249 253 253 257 257 256 261
106 280 309 265 212 201 208 210 213 219 203 187 205 137 127 114 109 121 109 56 78 95 102 110 125 111 106 121 180 221 229 230 240 249 248 250 251 250 252 251 251 253 254 252
240 233 197 202 201 216 220 221 222 215 201 171 126 133 136 154 157 148 134 113 94 77 52 49 69 123 156 173 214 219 236 253 251 258 268 261 259 262 262 261 261 262 265 260
324 292 273 225 228 206 288 268 115 99 115 124 130 130 119 110 126 124 133 124 128 135 140 341 321 62 143 175 169 182 196 216 232 245 252 262 261 258 261 260 260 258 260 264
350 350 29 68 48 29 114 78 101 92 79 98 106 109 110 105 114 124 128 114 87 84 108 75 322 266 103 267 181 212 222 249 265 271 275 277 273 275 274 263 265 267 263 259
3 2 38 61 63 48 51 73 107 105 101 95 112 115 118 119 111 123 127 129 124 138 150 178 203 155 192 192 196 212 241 255 258 269 271 273 278 273 272 268 266 262 263 259
351 23 44 58 69 66 34 58 78 85 87 91 96 113 121 124 132 118 31 90 139 172 198 197 219 233 265 256 253 258 257 258 264 264 263 265 271 278 278 274 270 268 265 262
22 31 57 61 83 86 61 50 54 75 90 97 115 129 120 127 135 142 142 159 156 186 235 292 305 286 265 252 265 264 264 265 267 268 266 273 275 275 274 275 275 273 271 268
42 47 67 81 76 86 85 51 76 76 80 85 87 91 123 126 102 76 87 117 204 273 293 304 308 303 65 275 261 267 271 272 272 272 275 274 273 273 270 271 270 270 266 264
59 66 58 65 82 79 91 104 98 94 95 95 92 80 69 43 33 135 132 275 301 320 297 298 302 313 282 269 268 271 273 275 276 280 282 278 278 275 273 271 266 268 268 266
43 59 62 48 70 94 104 111 101 106 121 112 92 71 68 37 52 155 183 253 277 286 275 282 273 273 272 274 276 276 278 280 279 277 278 275 273 271 271 271 271 269 267 266
86 88 86 75 48 42 45 53 86 86 65 87 111 107 40 352 334 317 316 299 290 281 275 273 266 267 275 278 280 280 279 275 270 276 276 274 272 272 273 273 273 272 272 270